STARLINK-31907, 59797

Orbit data source: Space-Track

STARLINK-31907, 59797 is a payload satellite owned by SpaceX/Seattle (US) in LEO that was launched on Sat, 18 May 2024 UTC via an FALCON 9 launch vehicle from the Air Force Eastern Test Range (AFETR). Payload-class satellites include a variety of spacecraft equipped with specific instruments for various scientific and technological missions. These include communications satellites like Starlink; space stations such as the ISS; scientific satellites like the Hubble; Earth observation satellites from companies like Planet Labs, Umbra, and HawkEye 360; GPS; miniature CubeSats for education and research; and military/defense satellites.

Loading next visibility...
Identifier
59797, 2024-093R
Orbit
LEO
Country
Flag of USUS
Related business
Manufacturer
SpaceX/Seattle
Mission
Operational Commercial Communications
Bus & Motor
STARLINK V2M, Unknown motor
Mass
730 kg wet, ~700 kg dry
Launch date (UTC)
2024-05-18 (2 years ago)
Launch vehicle
FALCON 9
Launch site
Air Force Eastern Test Range (AFETR)
Object type
Payload
Rocket body
Debris
Shape & HBR
Box + 2 Pan, 17.7 m
Radar Cross Section
33.884 m², Large (>1 m²)

Expand to show TLE details & history
Last TLE update: 9 hours ago

TLE from 9 hours ago
0 STARLINK-31907
1 59797U 24093R   26073.58497628  .00002470  00000-0  99234-4 0  9996
2 59797  42.9982 181.2844 0000880 277.5191  82.5561 15.27577460103442
Epoch: 2026-03-14T14:02Z
TLE epoch observation values (Epoch: 2026-03-14T14:02:21.950Z)
Latitude
Longitude
158.48889°
Altitude
482.754 km
Speed
7.626 km/s
True Right ascension
12h 05m 08s
True Declination
0° 00' 00"
Sunlit
Object was in full shadow at epoch
Visualization orbit readout
Latitude
Unknown
Longitude
Unknown
Altitude
Unknown
Speed
Unknown
Apparent Right ascension
Unknown
Apparent Declination
Unknown
Sunlit
N/A
Visualization observer readout
Local Sidereal Time
03:51:24
Azimuth
Unknown
Elevation
Unknown
Doppler factor
Unknown
Orbital elements
Apogee altitude
485.606 km
Perigee altitude
484.398 km
Semi-major axis
6,863.139 km
Eccentricity
0.00009
Inclination
42.9982°
RAAN
181.2844°
Arg. of periapsis
277.5191°
True anomaly
82.5661°
Mean anomaly
82.5561°
Eccentric anomaly
82.5611°
Mean motion
3.81732 °/min
Orbital period
94.31 mins
BSTAR
0.000099234
Loading maneuver chart data...
Computing Atmospheric mass density...
Loading historical data...
Loading historical data...
Loading historical data...
Loading historical data...
Loading historical data...
Loading historical data...
Loading historical data...

Documentation

Showing up to 5 results
|